Weather History for Vernal, UT

Change the Weather History Date:

Wednesday, March 20, 2013

  Actual Average Record
Temperature  
Mean Temperature 41 °F 40 °F  
Max Temperature 57 °F 51 °F 75 °F (2004)
Min Temperature 25 °F 28 °F 9 °F (1965)
Degree Days  
Heating Degree Days 24 26  
Month to date heating degree days 569 578  
Since 1 July heating degree days 6456 6069  
Cooling Degree Days 0 0  
Month to date cooling degree days 0 0  
Year to date cooling degree days 0 0  
Moisture  
Dew Point 17 °F    
Average Humidity 41    
Maximum Humidity 63    
Minimum Humidity 19    
Precipitation  
Precipitation T in 0.03 in 0.40 in (1932)
Month to date precipitation 0.54 0.42  
Year to date precipitation 1.62 1.44  
Sea Level Pressure  
Sea Level Pressure 30.01 in    
Wind  
Wind Speed 5 mph (SW)    
Max Wind Speed 18 mph    
Max Gust Speed 25 mph    
Visibility 10 miles    
Events      
T = Trace of Precipitation, MM = Missing Value Source: NWS Daily Summary

Daily Weather History Graph

Daily Weather History Graph

Search for Another Location

Airport:

Trip Planner

Search our weather history database for the weather conditions in past years. The results will help you decide how hot, cold, wet, or windy it might be!

Date:

Astronomy

Mar. 20, 2013 Rise Set
Actual Time 7:20 AM MDT 7:30 PM MDT
Civil Twilight 6:53 AM MDT 7:57 PM MDT
Nautical Twilight 6:21 AM MDT 8:29 PM MDT
Astronomical Twilight 5:49 AM MDT 9:02 PM MDT
Moon 1:07 PM MDT (3/20) 3:04 AM MDT (3/20)
Length of Visible Light 13h 03m
Length of Day
12h 09m
First Quarter, 60% of the Moon is Illuminated
Mar 20
First Quarter
Mar 27
Full
Apr 2
Last Quarter
Apr 10
New
Apr 18
First Quarter

Hourly Weather History & Observations

Time (MDT) Temp. Windchill Dew Point Humidity Pressure Visibility Wind Dir Wind Speed Gust Speed Precip Events Conditions
12:53 AM 32.0 °F - 10.0 °F 40% 30.19 in 10.0 mi Calm Calm - N/A   Clear
1:53 AM 28.9 °F 22.8 °F 12.9 °F 51% 30.19 in 10.0 mi West 5.8 mph - N/A   Clear
2:53 AM 30.0 °F 26.5 °F 10.9 °F 45% 30.16 in 10.0 mi West 3.5 mph - N/A   Clear
3:53 AM 30.0 °F 26.5 °F 12.9 °F 49% 30.14 in 10.0 mi WNW 3.5 mph - N/A   Clear
4:53 AM 28.0 °F - 15.1 °F 58% 30.14 in 10.0 mi Calm Calm - N/A   Clear
5:53 AM 27.0 °F - 14.0 °F 58% 30.15 in 10.0 mi Calm Calm - N/A   Clear
6:53 AM 27.0 °F - 16.0 °F 63% 30.15 in 10.0 mi Calm Calm - N/A   Overcast
7:53 AM 28.9 °F 22.8 °F 16.0 °F 58% 30.14 in 10.0 mi West 5.8 mph - N/A   Partly Cloudy
8:53 AM 34.0 °F - 17.1 °F 50% 30.15 in 10.0 mi Calm Calm - N/A   Mostly Cloudy
9:53 AM 37.9 °F - 10.9 °F 33% 30.12 in 10.0 mi Calm Calm - N/A   Mostly Cloudy
10:53 AM 39.0 °F - 10.0 °F 30% 30.10 in 10.0 mi Calm Calm - N/A   Partly Cloudy
11:53 AM 41.0 °F 39.0 °F 10.9 °F 29% 30.07 in 10.0 mi Variable 3.5 mph - N/A   Clear
12:53 PM 44.1 °F 42.5 °F 10.9 °F 26% 30.04 in 10.0 mi ESE 3.5 mph - N/A   Scattered Clouds
1:53 PM 48.9 °F - 12.9 °F 24% 29.99 in 10.0 mi Variable 3.5 mph - N/A   Scattered Clouds
2:53 PM 52.0 °F - 10.9 °F 19% 29.92 in 10.0 mi SW 9.2 mph 17.3 mph N/A   Clear
3:53 PM 55.0 °F - 16.0 °F 22% 29.88 in 10.0 mi SW 10.4 mph - N/A   Mostly Cloudy
4:53 PM 57.0 °F - 19.0 °F 23% 29.85 in 10.0 mi South 12.7 mph - N/A   Clear
5:53 PM 55.0 °F - 19.0 °F 24% 29.85 in 10.0 mi WSW 10.4 mph - N/A   Partly Cloudy
6:53 PM 54.0 °F - 28.0 °F 37% 29.84 in 10.0 mi South 8.1 mph - N/A   Overcast
7:53 PM 50.0 °F - 30.0 °F 46% 29.83 in 10.0 mi SSW 5.8 mph - N/A   Scattered Clouds
8:53 PM 51.1 °F - 28.9 °F 43% 29.81 in 10.0 mi SW 6.9 mph - N/A   Overcast
9:53 PM 48.0 °F - 28.9 °F 48% 29.80 in 10.0 mi WSW 5.8 mph - N/A   Mostly Cloudy
10:53 PM 46.0 °F 44.8 °F 28.9 °F 51% 29.79 in 10.0 mi WSW 3.5 mph - N/A   Scattered Clouds